This demonstration page uses our WeatherBlox Daily Observations layout. Learn more.

Left ArrowRight Arrow

Hourly Observations for February 23, 2016

Temp ( °F °C ) Dew Point ( °F °C ) Humidity (%) Winds ( mph kmh ) Pressure ( in mb ) Visibility ( mi km ) Precip ( " mm )
12:15 am 00:15 Cloudy 37 3 32 0 81 81 N 7 11 30.09 1019 10 16 0.00 0.00
12:35 am 00:35 Cloudy 37 3 34 1 87 87 N 6 9 30.09 1019 10 16 0.00 0.00
12:55 am 00:55 Cloudy 37 3 34 1 87 87 NNE 7 11 30.09 1019 10 16 0.00 0.00
1:15 am 01:15 Cloudy 37 3 34 1 87 87 NE 6 9 30.09 1019 10 16 0.00 0.00
1:35 am 01:35 Cloudy 37 3 34 1 87 87 ENE 7 11 30.06 1018 10 16 0.00 0.00
1:55 am 01:55 Cloudy 37 3 34 1 87 87 ESE 9 15 30.06 1018 10 16 0.00 0.00
2:15 am 02:15 Cloudy 37 3 34 1 87 87 ESE 7 11 30.06 1018 10 16 0.00 0.00
2:35 am 02:35 Cloudy 36 2 32 0 87 87 ESE 3 6 30.06 1018 10 16 0.00 0.00
2:55 am 02:55 Cloudy 36 2 32 0 87 87 Calm 30.06 1018 10 16 0.00 0.00
3:15 am 03:15 Cloudy 36 2 34 1 93 93 Calm 30.06 1018 10 16 0.00 0.00
3:35 am 03:35 Mostly Cloudy 36 2 34 1 93 93 Calm 30.06 1018 10 16 0.00 0.00
3:55 am 03:55 Clear 36 2 34 1 93 93 Calm 30.06 1018 10 16 0.00 0.00
4:15 am 04:15 Clear 34 1 32 0 93 93 Calm 30.09 1019 8 13 0.00 0.00
4:35 am 04:35 Clear 34 1 32 0 93 93 NW 3 6 30.09 1019 8 13 0.00 0.00
4:55 am 04:55 Clear 30 -1 28 -2 93 93 WNW 8 13 30.12 1020 7 11 0.00 0.00
5:15 am 05:15 Clear 30 -1 28 -2 93 93 WNW 7 11 30.12 1020 9 14 0.00 0.00
5:35 am 05:35 Clear 30 -1 28 -2 93 93 WNW 5 7 30.15 1021 10 16 0.00 0.00
5:55 am 05:55 Clear 30 -1 28 -2 93 93 WNW 9 15 30.15 1021 10 16 0.00 0.00
6:15 am 06:15 Clear 30 -1 28 -2 93 93 NW 9 15 30.15 1021 10 16 0.00 0.00
6:35 am 06:35 Clear 30 -1 27 -3 86 86 NW 9 15 30.15 1021 10 16 0.00 0.00
6:55 am 06:55 Clear 32 0 27 -3 80 80 NW 9 15 30.15 1021 10 16 0.00 0.00
7:15 am 07:15 Clear 32 0 25 -4 75 75 NNW 10 17 30.18 1022 10 16 0.00 0.00
7:35 am 07:35 Mostly Sunny 32 0 25 -4 75 75 NW 10 17 30.18 1022 10 16 0.00 0.00
7:55 am 07:55 Mostly Cloudy 32 0 27 -3 80 80 NW 10 17 30.18 1022 10 16 0.00 0.00
8:15 am 08:15 Partly Cloudy 34 1 25 -4 70 70 NNW 15 24 30.21 1023 10 16 0.00 0.00
8:35 am 08:35 Sunny 34 1 25 -4 70 70 NNW 15 24 30.21 1023 10 16 0.00 0.00
8:55 am 08:55 Sunny 34 1 25 -4 70 70 NNW 15 24 30.21 1023 10 16 0.00 0.00
9:15 am 09:15 Sunny 36 2 27 -3 70 70 NNW 17 28 30.21 1023 10 16 0.00 0.00
9:35 am 09:35 Sunny 37 3 27 -3 65 65 NNW 18 30 30.18 1022 10 16 0.00 0.00
9:55 am 09:55 Sunny 37 3 27 -3 65 65 NNW 24 39 30.18 1022 10 16 0.00 0.00
10:15 am 10:15 Sunny 39 4 27 -3 61 61 NNW 21 33 30.18 1022 10 16 0.00 0.00
10:35 am 10:35 Sunny 39 4 25 -4 56 56 NNW 23 37 30.18 1022 10 16 0.00 0.00
10:55 am 10:55 Sunny 41 5 25 -4 53 53 N 22 35 30.18 1022 10 16 0.00 0.00
11:15 am 11:15 Sunny 43 6 25 -4 49 49 N 25 41 30.15 1021 10 16 0.00 0.00
11:35 am 11:35 Sunny 43 6 23 -5 46 46 NNW 25 41 30.15 1021 10 16 0.00 0.00
11:55 am 11:55 Sunny 43 6 21 -6 42 42 N 24 39 30.15 1021 10 16 0.00 0.00
12:15 pm 12:15 Sunny 43 6 19 -7 39 39 NNW 28 44 30.15 1021 10 16 0.00 0.00
12:35 pm 12:35 Sunny 45 7 19 -7 37 37 N 23 37 30.15 1021 10 16 0.00 0.00
12:55 pm 12:55 Sunny 45 7 19 -7 37 37 NNW 22 35 30.12 1020 10 16 0.00 0.00
1:15 pm 13:15 Sunny 45 7 18 -8 34 34 N 25 41 30.12 1020 10 16 0.00 0.00
1:35 pm 13:35 Sunny 46 8 18 -8 32 32 NNW 21 33 30.12 1020 10 16 0.00 0.00
1:55 pm 13:55 Sunny 46 8 18 -8 32 32 N 29 46 30.12 1020 10 16 0.00 0.00
2:15 pm 14:15 Sunny 46 8 18 -8 32 32 N 21 33 30.12 1020 10 16 0.00 0.00
2:35 pm 14:35 Sunny 46 8 18 -8 32 32 NNW 21 33 30.09 1019 10 16 0.00 0.00
2:55 pm 14:55 Sunny 46 8 16 -9 29 29 N 22 35 30.09 1019 10 16 0.00 0.00
3:15 pm 15:15 Sunny 46 8 16 -9 29 29 NNW 22 35 30.09 1019 10 16 0.00 0.00
3:35 pm 15:35 Sunny 46 8 16 -9 29 29 N 23 37 30.09 1019 10 16 0.00 0.00
3:55 pm 15:55 Sunny 46 8 18 -8 32 32 N 21 33 30.09 1019 10 16 0.00 0.00
4:15 pm 16:15 Sunny 48 9 18 -8 29 29 N 23 37 30.06 1018 10 16 0.00 0.00
4:35 pm 16:35 Sunny 48 9 16 -9 27 27 N 22 35 30.06 1018 10 16 0.00 0.00
4:55 pm 16:55 Sunny 46 8 14 -10 27 27 N 20 31 30.09 1019 10 16 0.00 0.00
5:15 pm 17:15 Sunny 46 8 16 -9 29 29 N 22 35 30.09 1019 10 16 0.00 0.00
5:35 pm 17:35 Sunny 45 7 16 -9 31 31 N 17 28 30.12 1020 10 16 0.00 0.00
5:55 pm 17:55 Sunny 45 7 16 -9 31 31 N 16 26 30.12 1020 10 16 0.00 0.00
6:15 pm 18:15 Sunny 41 5 18 -8 39 39 N 13 20 30.15 1021 10 16 0.00 0.00
6:35 pm 18:35 Clear 39 4 18 -8 42 42 N 12 19 30.15 1021 10 16 0.00 0.00
6:55 pm 18:55 Clear 39 4 18 -8 42 42 N 13 20 30.18 1022 10 16 0.00 0.00
7:15 pm 19:15 Clear 37 3 18 -8 45 45 N 12 19 30.18 1022 10 16 0.00 0.00
7:35 pm 19:35 Clear 36 2 18 -8 48 48 N 8 13 30.21 1023 10 16 0.00 0.00
7:55 pm 19:55 Clear 36 2 18 -8 48 48 NNW 6 9 30.21 1023 10 16 0.00 0.00
8:15 pm 20:15 Clear 34 1 19 -7 56 56 NNW 8 13 30.21 1023 10 16 0.00 0.00
8:35 pm 20:35 Clear 34 1 19 -7 56 56 NNW 7 11 30.21 1023 10 16 0.00 0.00
8:55 pm 20:55 Clear 32 0 19 -7 60 60 NNW 7 11 30.21 1023 10 16 0.00 0.00
9:15 pm 21:15 Clear 30 -1 19 -7 64 64 NNW 6 9 30.24 1024 10 16 0.00 0.00
9:35 pm 21:35 Clear 28 -2 19 -7 69 69 NW 7 11 30.24 1024 10 16 0.00 0.00
9:55 pm 21:55 Clear 28 -2 19 -7 69 69 NW 8 13 30.24 1024 10 16 0.00 0.00
10:15 pm 22:15 Clear 27 -3 19 -7 74 74 NW 7 11 30.24 1024 10 16 0.00 0.00
10:35 pm 22:35 Clear 27 -3 19 -7 74 74 NW 7 11 30.24 1024 10 16 0.00 0.00
10:55 pm 22:55 Clear 27 -3 18 -8 69 69 WNW 8 13 30.24 1024 10 16 0.00 0.00
11:15 pm 23:15 Clear 27 -3 19 -7 74 74 WNW 9 15 30.24 1024 10 16 0.00 0.00
11:35 pm 23:35 Clear 27 -3 19 -7 74 74 WNW 8 13 30.24 1024 10 16 0.00 0.00
11:55 pm 23:55 Clear 27 -3 18 -8 69 69 WNW 8 13 30.24 1024 10 16 0.00 0.00

Powered by AerisWeather